BMCB-22 Weather Reports


Display with metric or nautical units.
time (UTC)temp
F
wind
direction
speed
MPH
gust
MPH
rain 1hr
in
rain 24hr
in
rain mn
in
humidity
%
barometer
mb
20260505235102 45 16 6.0 9.0 0.02 0.50 0.06 10 1007.7
20260505233101 46 23 5.0 9.0 0.03 0.50 0.05 10 1007.8
20260505232104 46 12 5.0 8.0 0.04 0.50 0.05 10 1007.8
20260505231102 46 15 5.0 8.0 0.04 0.49 0.04 10 1007.8
20260505225105 46 14 5.0 8.0 0.04 0.48 0.03 10 1008.0
20260505224102 46 15 5.0 8.0 0.04 0.48 0.03 10 1008.0
20260505223102 46 17 5.0 8.0 0.04 0.47 0.02 10 1008.0
20260505222103 46 12 5.0 7.0 0.04 0.46 0.02 10 1008.1
20260505221107 46 16 4.0 7.0 0.03 0.46 0.01 10 1008.1
20260505220100 46 16 5.0 7.0 0.03 0.45 0.00 10 1008.1
20260505215111 46 22 5.0 8.0 0.03 0.45 0.45 10 1008.2
20260505214113 46 19 5.0 9.0 0.02 0.44 0.44 99 1008.2
20260505213110 46 19 5.0 9.0 0.02 0.44 0.44 99 1008.2
20260505212109 46 18 6.0 9.0 0.02 0.43 0.43 99 1008.3
20260505211107 46 16 5.0 8.0 0.02 0.43 0.43 99 1008.4
20260505210107 46 12 5.0 7.0 0.05 0.43 0.43 99 1008.4
20260505205106 46 10 5.0 8.0 0.05 0.42 0.42 99 1008.3
20260505203108 47 17 4.0 7.0 0.06 0.42 0.42 99 1008.3
20260505202108 47 22 5.0 8.0 0.06 0.42 0.42 99 1008.3
20260505195105 47 28 6.0 9.0 0.05 0.38 0.38 99 1008.2
20260505193108 48 16 5.0 9.0 0.06 0.36 0.36 99 1008.0
20260505192102 48 18 5.0 7.0 0.09 0.36 0.36 99 1008.0
20260505191106 48 30 5.0 8.0 0.09 0.35 0.35 99 1007.9
20260505190106 48 25 6.0 9.0 0.10 0.35 0.35 99 1007.9
20260505185105 48 19 5.0 7.0 0.11 0.34 0.34 99 1007.9
20260505184107 48 23 5.0 8.0 0.12 0.33 0.33 99 1007.9
20260505183101 48 25 4.0 8.0 0.13 0.31 0.31 99 1007.9
20260505182101 49 24 5.0 8.0 0.13 0.30 0.30 99 1007.9
20260505181104 49 26 5.0 8.0 0.11 0.28 0.28 99 1007.9
20260505180104 49 20 5.0 8.0 0.11 0.26 0.26 99 1007.9
20260505175059 49 22 5.0 7.0 0.10 0.24 0.24 99 1007.9
20260505174059 49 24 5.0 8.0 0.09 0.23 0.23 99 1007.9
20260505173104 49 20 7.0 9.0 0.09 0.23 0.21 99 1007.9
20260505172056 49 23 7.0 9.0 0.06 0.20 0.19 99 1008.0
20260505171100 49 25 6.0 9.0 0.05 0.19 0.17 99 1007.9
20260505165105 50 26 6.0 8.0 0.05 0.17 0.15 99 1008.0
20260505164059 50 30 6.0 8.0 0.05 0.16 0.14 99 1008.0
20260505163104 50 27 7.0 9.0 0.05 0.15 0.13 99 1008.0
20260505162100 50 26 7.0 10.0 0.04 0.14 0.13 99 1008.0
20260505153059 51 22 6.0 9.0 0.02 0.11 0.09 98 1008.2
20260505152059 51 22 6.0 9.0 0.02 0.10 0.09 98 1008.2
20260505151056 51 22 5.0 9.0 0.02 0.10 0.09 98 1008.3
20260505140106 52 14 7.0 10.0 0.00 0.09 0.07 97 1008.3
20260505124058 53 11 5.0 9.0 0.00 0.14 0.07 94 1008.7
20260505123057 53 11 5.0 8.0 0.00 0.17 0.07 96 1008.8
20260505122056 52 5 5.0 8.0 0.00 0.18 0.07 96 1008.9
20260505121054 52 359 4.0 8.0 0.02 0.19 0.07 97 1009.0
20260505120057 52 355 3.0 7.0 0.04 0.20 0.07 97 1009.0
20260505115056 52 340 3.0 6.0 0.07 0.20 0.07 97 1009.1
20260505114058 52 332 4.0 7.0 0.07 0.20 0.07 97 1009.0
20260505113056 52 345 4.0 7.0 0.07 0.20 0.07 97 1009.1
20260505111058 52 330 3.0 6.0 0.07 0.20 0.07 97 1009.3
20260505102056 53 350 4.0 6.0 0.00 0.15 0.00 93 1009.4
20260505100055 53 351 2.0 6.0 0.00 0.15 0.00 92 1009.5
20260505095054 54 349 3.0 5.0 0.00 0.15 0.00 91 1009.4
20260505094056 54 249 3.0 5.0 0.00 0.15 0.00 88 1009.4
20260505092056 54 173 1.0 4.0 0.00 0.15 0.00 90 1009.5
20260505091057 54 82 1.0 5.0 0.00 0.15 0.00 90 1009.5
20260505090056 54 202 3.0 5.0 0.00 0.15 0.00 90 1009.5
20260505084057 53 231 1.0 4.0 0.00 0.15 0.00 93 1009.6
20260505083057 53 72 1.0 5.0 0.00 0.15 0.00 94 1009.8
20260505082057 52 60 2.0 6.0 0.00 0.15 0.00 94 1009.9
20260505081056 52 47 3.0 5.0 0.00 0.15 0.00 94 1009.9
20260505080056 52 74 2.0 5.0 0.00 0.15 0.00 93 1010.0
20260505075052 52 75 1.0 3.0 0.00 0.15 0.00 93 1010.0
20260505074058 52 103 0.0 2.0 0.00 0.15 0.00 94 1010.0
20260505073054 52 88 0.0 0.0 0.00 0.15 0.00 94 1010.1
20260505071057 51 218 0.0 0.0 0.00 0.15 0.00 95 1010.2
20260505070051 51 241 0.0 2.0 0.00 0.15 0.00 96 1010.2
20260505065057 51 211 0.0 2.0 0.00 0.15 0.00 96 1010.4
20260505064052 51 204 0.0 1.0 0.00 0.15 0.00 97 1010.4
20260505063053 51 238 0.0 0.0 0.00 0.15 0.00 98 1010.4
20260505062052 50 121 0.0 1.0 0.00 0.15 0.00 98 1010.5
20260505061054 50 82 0.0 0.0 0.00 0.15 0.00 98 1010.5
20260505060056 50 85 0.0 1.0 0.00 0.15 0.00 98 1010.5
20260505055055 50 87 0.0 2.0 0.00 0.15 0.00 99 1010.5
20260505054058 50 232 0.0 1.0 0.00 0.15 0.00 99 1010.4
20260505053055 50 106 0.0 3.0 0.00 0.15 0.00 99 1010.4
20260505052053 50 155 0.0 1.0 0.00 0.15 0.00 99 1010.4
20260505051057 50 176 0.0 2.0 0.00 0.15 0.00 99 1010.4
20260505040053 50 177 0.0 2.0 0.00 0.15 0.00 98 1010.5
20260505035057 50 186 0.0 2.0 0.00 0.15 0.00 98 1010.7
20260505034055 50 187 1.0 4.0 0.00 0.15 0.00 98 1010.8
20260505033058 50 213 0.0 3.0 0.00 0.15 0.00 98 1010.9
20260505032055 50 186 0.0 3.0 0.00 0.15 0.00 98 1010.9
20260505031056 50 180 0.0 0.0 0.00 0.15 0.00 98 1011.0
20260505030055 50 194 0.0 1.0 0.00 0.15 0.00 98 1011.0
20260505025055 50 152 0.0 2.0 0.00 0.15 0.00 98 1011.1
20260505024057 50 197 0.0 0.0 0.00 0.15 0.00 98 1011.2
20260505023058 50 185 0.0 0.0 0.00 0.15 0.00 98 1011.3
20260505022055 50 167 0.0 0.0 0.00 0.15 0.00 98 1011.4
20260505021056 50 88 0.0 0.0 0.00 0.15 0.00 98 1011.4
20260505020058 50 184 0.0 2.0 0.00 0.15 0.00 98 1011.5
20260505015055 50 205 0.0 1.0 0.00 0.15 0.00 98 1011.5
20260505013053 50 126 0.0 0.0 0.00 0.15 0.00 98 1011.5
20260505012055 50 71 0.0 0.0 0.00 0.15 0.00 98 1011.5
20260505005059 50 128 0.0 0.0 0.00 0.15 0.00 98 1011.6
20260505002054 50 85 0.0 0.0 0.00 0.15 0.00 98 1011.9
20260505001057 50 76 0.0 0.0 0.00 0.15 0.00 98 1012.0